[[{"header":{"parameterUnit":"m.s-1","parameterCategory":1,"la1":30.2991,"la2":30.254,"lo1":-89.0895,"lo2":-89.0444,"dy":0.0017,"dx":0.0017,"nx":28,"ny":28,"refTime":"2023-10-06T21:00:00:Z","depth":0,"parameterNumber":2,"parameterNumberName":"U-component_of_WINDS"},"data":[0,0,0,0,0,0,0,0,0,0,0,0,0,0,0,0,0,0,0,0,0,0,0,0,0,0,0,0,0,0,0,0,0,0,0,0,0,0,0,0,0,0,0,0,0,0,0,0,0,0,0,0,0,0,0,0,0,0,-0.9099,-0.9099,0,-0.9109,-0.9109,-0.9109,-0.9079,-0.9078,-0.9077,-0.9076,-0.9087,-0.9088,-0.909,0,0,0,0,0,0,0,0,0,0,0,0,0,-0.9054,-0.9055,-0.9099,-0.9099,-0.9099,-0.9109,-0.9109,-0.9109,-0.9079,-0.9078,-0.9077,-0.9076,-0.9087,-0.9088,-0.909,0,0,0,0,0,0,0,0,0,0,0,0,0,-0.907,-0.9056,-0.9099,-0.9085,-0.9084,-0.9109,-0.9109,-0.9109,-0.9079,-0.9078,-0.9076,-0.9075,-0.9086,-0.9088,-0.909,-0.9129,0,0,-0.9095,-0.9096,0,0,0,0,0,0,0,0,-0.9069,-0.9072,-0.9087,-0.9086,-0.9085,-0.9091,-0.9097,-0.9116,-0.9079,-0.9081,-0.9076,-0.9074,-0.909,-0.9091,-0.9096,-0.9129,-0.913,-0.9095,-0.9097,-0.9097,-0.9098,0,0,0,0,0,0,0,-0.9068,-0.9071,-0.9103,-0.9088,-0.9086,-0.9079,-0.9079,-0.9101,-0.9093,-0.9081,-0.9079,-0.908,-0.9089,-0.9095,-0.9096,-0.913,-0.9095,-0.9097,-0.9098,-0.9099,-0.9194,-0.9195,0,0,0,0,0,0,-0.9069,-0.907,-0.9103,-0.9103,-0.9073,-0.9081,-0.9081,-0.9091,-0.9093,-0.9092,-0.9081,-0.9079,-0.9092,-0.9094,-0.9097,-0.9141,-0.9097,-0.9099,-0.91,-0.9193,-0.9194,-0.9196,0,0,0,0,0,0,-0.9068,-0.9072,-0.9102,-0.9086,-0.909,-0.9083,-0.9094,-0.9092,-0.9097,-0.9093,-0.9092,-0.9088,-0.9091,-0.9094,-0.9121,-0.9141,-0.91,-0.9101,-0.9191,-0.9193,-0.9195,-0.9232,0,0,0,0,0,0,-0.9067,-0.9072,-0.9087,-0.9087,-0.9091,-0.9127,-0.9095,-0.9093,-0.91,-0.9097,-0.91,-0.9099,-0.909,-0.9118,-0.9122,-0.9143,-0.9103,-0.9189,-0.9192,-0.9194,-0.9229,-0.9235,-0.9241,0,0,0,0,0,-0.9065,-0.9097,-0.9088,-0.9092,-0.9109,-0.9128,-0.913,-0.9119,-0.9102,-0.9117,-0.9114,-0.9099,-0.9138,-0.9121,-0.9126,-0.9147,-0.9188,-0.9191,-0.9194,-0.9226,-0.9234,-0.924,0,0,0,0,0,0,-0.9101,-0.9097,-0.9086,-0.9119,-0.9124,-0.9123,-0.9141,-0.9128,-0.9138,-0.9135,-0.9121,-0.9122,-0.9151,-0.9152,-0.9133,-0.9184,-0.916,-0.9164,-0.9183,-0.919,-0.9196,-0.9195,-0.9104,0,0,0,0,0,-0.9112,-0.9128,-0.9124,-0.9153,-0.9156,-0.9148,-0.9156,-0.9147,-0.9152,-0.9154,-0.9153,-0.9158,-0.9171,-0.9181,-0.9193,-0.9228,-0.9228,-0.9245,-0.9251,-0.9256,-0.926,-0.9278,-0.9285,-0.9207,-0.9207,-0.9207,0,0,-0.9137,-0.9136,-0.9147,-0.916,-0.9163,-0.9179,-0.915,-0.9169,-0.918,-0.9157,-0.9181,-0.9181,-0.9186,-0.9216,-0.923,-0.9218,-0.9281,-0.926,-0.9264,-0.9266,-0.9282,-0.9289,-0.9296,-0.9209,-0.9209,-0.9208,0,0,-0.9189,-0.9191,-0.9215,-0.9218,-0.9221,-0.9215,-0.9221,-0.9221,-0.922,-0.9244,-0.9226,-0.924,-0.9264,-0.9267,-0.9273,-0.9324,-0.931,-0.9329,-0.9359,-0.9377,-0.9383,-0.9388,-0.9406,-0.9413,-0.9333,-0.9333,-0.9333,0,-0.9219,-0.9242,-0.9229,-0.9248,-0.9254,-0.9232,-0.9256,-0.926,-0.9268,-0.9272,-0.9258,-0.9286,-0.9288,-0.9319,-0.9332,-0.9337,-0.9342,-0.9329,-0.9383,-0.9388,-0.9393,-0.941,-0.9417,-0.9335,-0.9335,-0.9334,-0.9334,0,-0.9279,-0.9295,-0.9314,-0.9321,-0.9329,-0.9351,-0.9341,-0.935,-0.934,-0.9336,-0.936,-0.9361,-0.9373,-0.9379,-0.937,-0.9409,-0.9401,-0.9385,-0.9361,-0.9403,-0.9419,-0.9425,-0.9338,-0.9337,-0.9337,-0.9336,0,0,-0.9356,-0.9353,-0.9361,-0.9363,-0.9364,-0.9377,-0.9397,-0.9407,-0.9415,-0.9421,-0.9438,-0.9457,-0.9442,-0.9448,-0.9439,-0.9454,-0.9494,-0.9436,-0.9436,-0.9447,-0.9536,-0.9547,-0.9555,-0.9484,-0.9486,-0.9487,-0.9535,0,-0.9407,-0.9441,-0.9429,-0.9463,-0.9478,-0.9456,-0.9473,-0.9476,-0.9472,-0.9484,-0.9479,-0.9493,-0.9473,-0.9476,-0.949,-0.9486,-0.9512,-0.9483,-0.95,-0.95,-0.9499,-0.9563,-0.9576,-0.9622,-0.9541,-0.9542,-0.9543,0,-0.9472,-0.9479,-0.9515,-0.9512,-0.9517,-0.9533,-0.9541,-0.9552,-0.9555,-0.9551,-0.9556,-0.9543,-0.9562,-0.9537,-0.9564,-0.9544,-0.955,-0.9549,-0.9551,-0.9552,-0.9524,-0.9566,-0.9636,-0.9643,-0.9552,-0.9552,-0.9551,0,-0.9523,-0.9542,-0.9565,-0.9568,-0.9566,-0.9577,-0.9577,-0.9578,-0.9584,-0.9591,-0.9595,-0.9604,-0.9609,-0.9616,-0.9606,-0.9589,-0.9634,-0.9608,-0.9631,-0.9631,-0.9641,-0.9641,-0.9713,-0.9645,-0.9645,-0.9645,-0.9645,0,-0.9582,-0.9605,-0.9588,-0.9603,-0.9627,-0.9612,-0.9637,-0.9634,-0.9635,-0.9648,-0.963,-0.9643,-0.9629,-0.9641,-0.9633,-0.9655,-0.9658,-0.9655,-0.9652,-0.9656,-0.9657,-0.966,-0.9657,-0.9647,-0.9647,-0.9646,-0.9646,0,-0.9645,-0.9634,-0.9658,-0.9653,-0.9653,-0.9671,-0.9667,-0.968,-0.9674,-0.9691,-0.9694,-0.9685,-0.9697,-0.9688,-0.9701,-0.9695,-0.9724,-0.9718,-0.9724,-0.9722,-0.9745,-0.9743,-0.9822,-0.9831,-0.9758,-0.9758,-0.9759,0,-0.9683,-0.9699,-0.9696,-0.9703,-0.9703,-0.9716,-0.9721,-0.9707,-0.9714,-0.9717,-0.973,-0.974,-0.9748,-0.9769,-0.9764,-0.9773,-0.9766,-0.9793,-0.9768,-0.9771,-0.9766,-0.9765,-0.9767,-0.9799,-0.98,-0.98,-0.9801,0,-0.9751,-0.9745,-0.9754,-0.9761,-0.9768,-0.9773,-0.9777,-0.9784,-0.9769,-0.9778,-0.979,-0.9796,-0.9807,-0.9818,-0.9825,-0.9825,-0.9811,-0.9809,-0.9814,-0.9819,-0.9821,-0.982,-0.9738,-0.9807,-0.9807,-0.9806,-0.9806,-0.9806,-0.9803,-0.9816,-0.9815,-0.9825,-0.9826,-0.9829,-0.984,-0.9835,-0.9845,-0.9853,-0.9844,-0.9858,-0.9859,-0.9866,-0.9868,-0.9879,-0.9867,-0.9876,-0.9878,-0.988,-0.9883,-0.9819,-0.988,-0.988,-0.988,-0.9879,-0.9879,0,-0.987,-0.9867,-0.9877,-0.9882,-0.9889,-0.9874,-0.9876,-0.9884,-0.9897,-0.9898,-0.9905,-0.9919,-0.9929,-0.9923,-0.9932,-0.9942,-0.9935,-0.9944,-0.9943,-0.9943,-0.9893,-0.9887,-0.9949,-0.9949,-0.9949,-0.9949,-0.9949,-0.9949,-0.9906,-0.9927,-0.992,-0.9941,-0.9939,-0.9952,-0.9955,-0.9957,-0.9958,-0.9973,-0.9981,-0.9977,-0.9975,-0.9983,-0.9991,-0.9989,-0.9993,-1.0005,-1.0001,-0.9954,-0.9947,-0.9941,-0.9935,-1.0006,-1.0006,-1.005,-1.005,-1.0051]},{"header":{"parameterUnit":"m.s-1","parameterCategory":1,"la1":30.2991,"la2":30.254,"lo1":-89.0895,"lo2":-89.0444,"dy":0.0017,"dx":0.0017,"nx":28,"ny":28,"refTime":"2023-10-06T21:00:00:Z","depth":0,"parameterNumber":3,"parameterNumberName":"V-component_of_WINDS"},"data":[0,0,0,0,0,0,0,0,0,0,0,0,0,0,0,0,0,0,0,0,0,0,0,0,0,0,0,0,0,0,0,0,0,0,0,0,0,0,0,0,0,0,0,0,0,0,0,0,0,0,0,0,0,0,0,0,0,0,-7.3248,-7.325,0,-7.3365,-7.3367,-7.3368,-7.3268,-7.3264,-7.326,-7.3256,-7.3369,-7.3375,-7.3382,0,0,0,0,0,0,0,0,0,0,0,0,0,-7.2932,-7.2938,-7.3248,-7.325,-7.3251,-7.3365,-7.3367,-7.3368,-7.3269,-7.3264,-7.3259,-7.3254,-7.3367,-7.3375,-7.3383,0,0,0,0,0,0,0,0,0,0,0,0,0,-7.3061,-7.294,-7.3248,-7.3216,-7.3214,-7.3365,-7.3367,-7.3369,-7.327,-7.3264,-7.3258,-7.3252,-7.3364,-7.3374,-7.3384,-7.3571,0,0,-7.3415,-7.342,0,0,0,0,0,0,0,0,-7.3054,-7.3073,-7.3219,-7.3218,-7.3216,-7.3296,-7.3296,-7.3436,-7.3271,-7.3248,-7.3256,-7.3249,-7.3349,-7.336,-7.3395,-7.3576,-7.3581,-7.3416,-7.3422,-7.3427,-7.343,0,0,0,0,0,0,0,-7.3045,-7.3067,-7.3294,-7.3221,-7.322,-7.3193,-7.3204,-7.3322,-7.3332,-7.325,-7.3243,-7.3259,-7.3347,-7.3386,-7.3397,-7.3583,-7.3416,-7.3425,-7.3431,-7.3435,-7.3921,-7.3927,0,0,0,0,0,0,-7.304,-7.306,-7.329,-7.3298,-7.3119,-7.3204,-7.3216,-7.3276,-7.333,-7.3333,-7.3264,-7.3254,-7.3371,-7.3385,-7.3401,-7.3623,-7.3427,-7.3436,-7.3442,-7.3914,-7.3923,-7.393,0,0,0,0,0,0,-7.3034,-7.3062,-7.3286,-7.3177,-7.3204,-7.3216,-7.3284,-7.3282,-7.3321,-7.3341,-7.3341,-7.3302,-7.3367,-7.3386,-7.353,-7.3625,-7.3441,-7.345,-7.3906,-7.3917,-7.3926,-7.4068,0,0,0,0,0,0,-7.3025,-7.306,-7.3133,-7.318,-7.321,-7.3415,-7.329,-7.3289,-7.3339,-7.3327,-7.3377,-7.3379,-7.3364,-7.3515,-7.354,-7.3636,-7.3458,-7.3898,-7.3911,-7.3923,-7.4055,-7.4082,-7.4105,0,0,0,0,0,-7.3014,-7.3167,-7.3137,-7.3166,-7.3302,-7.3421,-7.3438,-7.3419,-7.3348,-7.342,-7.3432,-7.3377,-7.3611,-7.353,-7.3558,-7.3658,-7.3892,-7.3907,-7.3922,-7.4044,-7.4076,-7.4104,0,0,0,0,0,0,-7.3129,-7.3172,-7.314,-7.3313,-7.3364,-7.3404,-7.3494,-7.3455,-7.3526,-7.3511,-7.3482,-7.3494,-7.3645,-7.3666,-7.3575,-7.3841,-7.3739,-7.3761,-7.3822,-7.3854,-7.3878,-7.387,-7.3467,0,0,0,0,0,-7.3174,-7.327,-7.3302,-7.3451,-7.3479,-7.3483,-7.3534,-7.3515,-7.3566,-7.3587,-7.361,-7.366,-7.3744,-7.38,-7.3879,-7.4057,-7.4066,-7.414,-7.4165,-7.4185,-7.4204,-7.4299,-7.4331,-7.398,-7.398,-7.3979,0,0,-7.3269,-7.3305,-7.3366,-7.3475,-7.3513,-7.361,-7.3501,-7.3609,-7.368,-7.3602,-7.3739,-7.3758,-7.3811,-7.3973,-7.4045,-7.3995,-7.4303,-7.4205,-7.4221,-7.4228,-7.4318,-7.4351,-7.438,-7.399,-7.3988,-7.3987,0,0,-7.3491,-7.3528,-7.3656,-7.3697,-7.3756,-7.3758,-7.3789,-7.3835,-7.3845,-7.3983,-7.3926,-7.4009,-7.4156,-7.4196,-7.4236,-7.4473,-7.4425,-7.45,-7.463,-7.4722,-7.475,-7.4774,-7.4858,-7.4889,-7.4518,-7.4518,-7.4519,0,-7.36,-7.3747,-7.3727,-7.3839,-7.3888,-7.3824,-7.3952,-7.3992,-7.4073,-7.4107,-7.405,-7.4232,-7.4264,-7.4434,-7.4492,-7.4526,-7.4559,-7.4493,-7.4748,-7.4772,-7.4795,-7.4874,-7.4906,-7.4527,-7.4526,-7.4525,-7.4524,0,-7.3878,-7.398,-7.4076,-7.4159,-7.4218,-7.4338,-7.4334,-7.4396,-7.4372,-7.4379,-7.4519,-7.4555,-7.464,-7.4679,-7.4656,-7.4846,-7.4812,-7.4753,-7.4649,-7.4838,-7.4912,-7.4942,-7.454,-7.4536,-7.4534,-7.4532,0,0,-7.4174,-7.4245,-7.428,-7.4317,-7.4378,-7.4455,-7.4571,-7.4657,-7.471,-7.4768,-7.4863,-7.4989,-7.4934,-7.4979,-7.496,-7.5042,-7.5227,-7.4971,-7.4972,-7.5017,-7.5436,-7.548,-7.5516,-7.5195,-7.5201,-7.5205,-7.5431,0,-7.4397,-7.4602,-7.4588,-7.4779,-7.4873,-7.4814,-7.4915,-7.4962,-7.4972,-7.505,-7.5059,-7.5149,-7.507,-7.5097,-7.5175,-7.5188,-7.531,-7.5171,-7.5281,-7.5286,-7.5269,-7.5555,-7.5602,-7.5814,-7.546,-7.5465,-7.5469,0,-7.4686,-7.4757,-7.4959,-7.5006,-7.5044,-7.5135,-7.5212,-7.5289,-7.534,-7.5341,-7.5393,-7.536,-7.5474,-7.537,-7.5526,-7.5432,-7.5476,-7.5489,-7.5496,-7.5505,-7.5388,-7.557,-7.5881,-7.5912,-7.5514,-7.5511,-7.5508,0,-7.4881,-7.5026,-7.5166,-7.5199,-7.5257,-7.5322,-7.5349,-7.5395,-7.5447,-7.5513,-7.5546,-7.5624,-7.5667,-7.5727,-7.5715,-7.564,-7.5874,-7.5769,-7.5877,-7.5877,-7.5928,-7.5925,-7.6249,-7.5958,-7.5958,-7.5957,-7.5957,0,-7.5131,-7.5257,-7.5254,-7.534,-7.5478,-7.5459,-7.5596,-7.5615,-7.5656,-7.5742,-7.5696,-7.5777,-7.5757,-7.5838,-7.5829,-7.5959,-7.5979,-7.5981,-7.5977,-7.5985,-7.5985,-7.6013,-7.5997,-7.5966,-7.5964,-7.5962,-7.5961,0,-7.5372,-7.5375,-7.5523,-7.5567,-7.5581,-7.5681,-7.5717,-7.5797,-7.5803,-7.5913,-7.5938,-7.5947,-7.6039,-7.6034,-7.6138,-7.6132,-7.6292,-7.6271,-7.6276,-7.6271,-7.6379,-7.6368,-7.6731,-7.6777,-7.6458,-7.6461,-7.6464,0,-7.5531,-7.5627,-7.5682,-7.5738,-7.577,-7.586,-7.5914,-7.5898,-7.5956,-7.6022,-7.6093,-7.6182,-7.6252,-7.6402,-7.6416,-7.6495,-7.6475,-7.6596,-7.6486,-7.6491,-7.6475,-7.6469,-7.6478,-7.6618,-7.6621,-7.6624,-7.6627,0,-7.5814,-7.5811,-7.5891,-7.5973,-7.6039,-7.6102,-7.6159,-7.6206,-7.6197,-7.6263,-7.6358,-7.6413,-7.652,-7.6608,-7.6683,-7.6708,-7.6666,-7.6662,-7.6691,-7.6699,-7.6697,-7.6699,-7.6334,-7.6653,-7.665,-7.6648,-7.6647,-7.6646,-7.6018,-7.61,-7.6152,-7.6243,-7.6285,-7.634,-7.6417,-7.6434,-7.6514,-7.6601,-7.6586,-7.6693,-7.674,-7.6838,-7.687,-7.6951,-7.6907,-7.695,-7.696,-7.697,-7.6982,-7.6686,-7.6965,-7.6964,-7.6963,-7.6963,-7.6962,0,-7.6297,-7.6328,-7.6412,-7.6495,-7.6566,-7.6523,-7.6584,-7.6645,-7.6741,-7.679,-7.6861,-7.6969,-7.7054,-7.7076,-7.7157,-7.7218,-7.7201,-7.724,-7.7235,-7.7241,-7.7017,-7.6984,-7.7253,-7.7253,-7.7253,-7.7253,-7.7252,-7.7252,-7.645,-7.6587,-7.6591,-7.6747,-7.6775,-7.6882,-7.692,-7.697,-7.7009,-7.7134,-7.7205,-7.722,-7.7257,-7.7341,-7.7416,-7.742,-7.7452,-7.7499,-7.7495,-7.7286,-7.7256,-7.7229,-7.7197,-7.7506,-7.7506,-7.7711,-7.7713,-7.7714]}]]